This is the latest recevied weather packets stored in our database for station/object KY4EF. If no packets are shown the sender has not sent any weather packets the latest 10 day(s).
| Time | Temp. | Humidity | Pressure | Rain* | Wind** | Luminosity | Snow |
|---|---|---|---|---|---|---|---|
| 1778025674 | 20.56° C | 49% | 1012 hPa | 0 mm | - | 6 W/m² | - |
| 1778025372 | 20.56° C | 49% | 1011.9 hPa | 0 mm | - | 8 W/m² | - |
| 1778025068 | 20.56° C | 49% | 1011.9 hPa | 0 mm | - | 10 W/m² | - |
| 1778024765 | 20.56° C | 50% | 1011.5 hPa | 0 mm | - | 15 W/m² | - |
| 1778024462 | 20.56° C | 50% | 1011.7 hPa | 0 mm | - | 16 W/m² | - |
| 1778024160 | 20.56° C | 49% | 1011.7 hPa | 0 mm | - | 18 W/m² | - |
| 1778023857 | 21.11° C | 47% | 1011.7 hPa | 0 mm | - | 22 W/m² | - |
| 1778023555 | 21.11° C | 48% | 1011.6 hPa | 0 mm | - | 30 W/m² | - |
| 1778023252 | 21.11° C | 49% | 1011.6 hPa | 0 mm | - | 22 W/m² | - |
| 1778022948 | 21.11° C | 48% | 1011.6 hPa | 0 mm | - | 19 W/m² | - |
| 1778022648 | 21.11° C | 47% | 1011.5 hPa | 0 mm | - | 33 W/m² | - |
| 1778022344 | 21.11° C | 48% | 1011.6 hPa | 0 mm | - | 60 W/m² | - |
| 1778022041 | 21.11° C | 46% | 1011.7 hPa | 0 mm | - | 31 W/m² | - |
| 1778021738 | 21.11° C | 49% | 1011.8 hPa | 0 mm | - | 30 W/m² | - |
| 1778021434 | 21.67° C | 48% | 1011.7 hPa | 0 mm | - | 24 W/m² | - |
| 1778021131 | 21.67° C | 45% | 1011.8 hPa | 0 mm | - | 32 W/m² | - |
| 1778020828 | 21.67° C | 46% | 1011.8 hPa | 0 mm | - | 53 W/m² | - |
| 1778020525 | 21.67° C | 46% | 1011.7 hPa | 0 mm | - | 93 W/m² | - |
| 1778020221 | 22.22° C | 42% | 1011.8 hPa | 0 mm | - | 68 W/m² | - |
| 1778019918 | 22.22° C | 43% | 1011.7 hPa | 0 mm | - | 45 W/m² | - |
| 1778019613 | 22.22° C | 45% | 1011.7 hPa | 0 mm | - | 64 W/m² | - |
| 1778019311 | 22.22° C | 46% | 1011.7 hPa | 0 mm | - | 70 W/m² | - |
| 1778019008 | 22.78° C | 44% | 1011.7 hPa | 0 mm | - | 91 W/m² | - |
| 1778018704 | 23.33° C | 43% | 1011.8 hPa | 0 mm | - | 76 W/m² | - |
| 1778018402 | 23.33° C | 46% | 1011.7 hPa | 0 mm | - | 61 W/m² | - |
* Rain latest hour (hover to see other rain measurements)
** Current wind speed in m/s (hover to see current wind gust speed)